Regional Weather Roundup
Issued by NWS

Home | Current Version | Previous Version | Graphics & Text | Print | Product List | Glossary On
Versions: 1 2 3 4 5 6 7 8 9 10 11 12 13 14 15 16 17 18 19 20 21 22 23 24 25 26 27 28 29 30 31 32 33 34 35 36 37 38 39 40 41 42 43 44 45 46 47 48 49 50
498
ASUS43 KFSD 232202
RWRSD

WEATHER ROUNDUP FOR SOUTH DAKOTA
NATIONAL WEATHER SERVICE SIOUX FALLS SD
400 PM CST MON JAN 23 2017

NOTE: "FAIR" INDICATES FEW OR NO CLOUDS BELOW 12,000 FEET WITH NO
SIGNIFICANT WEATHER AND/OR OBSTRUCTIONS TO VISIBILITY.


SDZ001>005-009-010-012>017-232300-
NORTHWEST AND NORTH CENTRAL SOUTH DAKOTA

CITY           SKY/WX    TMP DP  RH WIND       PRES   REMARKS
BUFFALO          N/A     25  21  85 CALM      29.61R
FAITH            N/A     27  24  89 NE12      29.67R WCI  17
MOBRIDGE       CLOUDY    30  24  78 E7        29.72R WCI  23
$$

SDZ012>016-024>037-041>051-057-063-072>074-232300-
SOUTHWEST AND SOUTH CENTRAL SOUTH DAKOTA

CITY           SKY/WX    TMP DP  RH WIND       PRES   REMARKS
RAPID CTY ARPT CLOUDY    24  21  88 N16       29.62R WCI  11
PIERRE         CLOUDY    30  26  85 E15       29.69R WCI  19
CUSTER         PTSUNNY   34  23  64 W5        29.51S WCI  30
ELLSWORTH AFB  CLOUDY    23  23 100 N14       29.63R WCI  11
PHILIP         CLOUDY    28  27  96 NE12      29.66R WCI  18
PINE RIDGE     SUNNY     43  28  55 CALM      29.56R
SPEARFISH      FOG       21  19  93 NW5       29.62S VSB<1/4 WCI  15
WINNER         CLOUDY    37  29  72 E20       29.62F
$$

SDZ004>011-016>023-039-040-232300-
NORTHEAST SOUTH DAKOTA

CITY           SKY/WX    TMP DP  RH WIND       PRES   REMARKS
ABERDEEN       CLOUDY    30  24  78 E3        29.80R
WATERTOWN      CLOUDY    29  26  89 E6        29.78R WCI  23
BROOKINGS      CLOUDY    30  26  85 E5        29.78S WCI  25
SISSETON         N/A     32  27  81 CALM      29.80R
$$

SDZ017-020-022-023-036>040-048>070-232300-
SOUTHEAST SOUTH DAKOTA

CITY           SKY/WX    TMP DP  RH WIND       PRES   REMARKS
SIOUX FALLS    CLOUDY    31  28  89 SE5       29.81R WCI  26
HURON          CLOUDY    31  27  85 SE9       29.80R WCI  23
CHAMBERLAIN    CLOUDY    34  30  86 E13G21    29.69F WCI  25
MITCHELL       CLOUDY    33  28  81 E12       29.79S WCI  24
YANKTON        CLOUDY    32  27  80 E9        29.78S WCI  24
$$

ABBREVIATIONS USED IN REMARKS
   TC - TEMPERATURE IN CELSIUS
  WCI - WIND CHILL INDEX
   HX - HEAT INDEX
  VSB - VISIBILITY





USA.gov is the U.S. government's official web portal to all federal, state and local government web resources and services.